Tracking 27107 objects as of 21-Mar-2023
HD Live streaming from Space Station
objects crossing your sky now

STARLINK-1306

Track STARLINK-1306 now!
10-day predictions
STARLINK-1306 is classified as:


NORAD ID: 45362
Int'l Code: 2020-019C
Perigee: 553.2 km
Apogee: 555.1 km
Inclination: 53.1 °
Period: 95.6 minutes
Semi major axis: 6925 km
RCS: Unknown
Launch date: March 18, 2020
Source: United States (US)
Launch site: AIR FORCE EASTERN TEST RANGE (AFETR)
Your satellite tracking list
Your tracking list is empty




NASA's NSSDC Master Catalog

Two Line Element Set (TLE):
1 45362U 20019C   23080.20023832  .00035478  00000-0  23841-2 0  9992
2 45362  53.0554 355.0773 0001342 123.2560 236.8557 15.06472132166261
Source of the keplerian elements: AFSPC